Temp
14 14 14 15 15 15 15 15 14 14 13 13 13 12 12 12 12 12 12 12 12 12 12 11 11 11 12 13 13 13 13 13 14 14 13 13 13 13 13 13 13 13
14 14 14 14 14 14 14 15 14 14 13 13 12 12 11 12 11 11 12 12 12 12 11 10 11 11 12 12 13 13 13 13 13 13 13 13 13 13 13 13 13 12
14 14 14 14 14 14 14 14 14 13 13 12 11 11 11 12 12 11 12 12 12 11 11 10 11 11 12 12 13 13 13 13 13 13 13 13 13 13 13 13 12 12
14 14 14 14 14 14 14 14 14 13 12 12 11 11 11 11 11 11 11 12 12 11 11 11 11 12 12 12 12 13 13 13 13 13 13 13 13 13 12 12 12 12
14 14 14 14 14 14 14 14 13 12 12 12 12 11 11 11 11 11 11 12 12 12 12 11 12 12 12 12 12 12 13 13 13 13 13 12 12 12 12 12 11 11
14 13 13 13 13 13 14 13 13 12 12 12 12 11 11 11 11 11 11 12 12 12 12 12 12 12 12 12 12 12 13 13 13 12 12 12 12 12 11 11 11 11
13 13 13 13 13 13 13 13 12 12 12 12 11 11 11 11 11 11 11 12 12 12 12 12 12 12 12 12 12 12 12 12 12 12 12 12 11 11 11 11 11 11
13 13 13 13 13 13 13 13 12 12 12 11 11 11 11 11 11 11 11 11 11 12 12 12 12 12 12 12 12 12 12 12 12 12 12 11 11 11 11 11 11 10
13 13 13 13 13 13 12 12 12 12 11 11 11 11 10 11 11 11 11 11 11 12 12 12 12 12 12 12 12 12 12 12 12 12 11 11 11 11 11 11 10 10
13 13 13 13 13 12 12 11 11 12 11 11 11 10 10 11 11 11 11 11 11 12 12 12 12 12 11 12 12 12 12 12 12 11 11 11 11 11 10 10 10 10
13 13 13 13 12 12 12 11 11 12 12 11 11 10 11 11 10 10 11 11 11 12 12 12 12 12 12 12 11 11 11 11 11 11 11 11 10 10 10 10 10 10
13 13 13 13 12 12 12 11 11 12 12 11 11 11 11 11 10 10 11 11 11 12 12 12 12 11 11 11 11 11 11 11 11 11 11 11 10 10 10 10 9 9
13 13 13 12 12 12 12 11 12 12 12 11 11 11 11 11 11 11 11 11 11 11 12 12 11 11 11 11 11 11 11 11 11 10 10 10 10 10 10 10 9 9
13 13 13 12 12 12 12 12 12 12 12 11 11 11 11 11 11 11 11 10 10 11 11 11 11 11 11 11 11 11 11 10 10 10 10 10 10 10 10 10 10 9
13 13 13 13 12 12 12 12 12 12 12 12 11 11 11 11 11 11 10 10 9 9 10 10 10 11 11 11 11 10 10 10 10 10 10 10 10 10 10 10 10 9
13 13 13 13 12 12 12 12 12 12 12 12 11 11 11 11 11 10 10 10 9 9 9 9 10 10 11 11 10 10 9 9 10 10 9 10 10 10 9 10 10 9
13 13 13 12 12 12 12 12 12 12 12 12 11 11 11 11 10 10 9 9 9 9 9 9 10 10 10 10 10 9 9 9 9 9 9 9 9 10 9 9 9 9
13 13 13 12 12 12 12 12 12 12 12 11 11 11 11 10 10 9 9 9 8 8 9 9 10 10 10 9 9 9 9 8 8 8 9 9 9 9 9 9 9 9
13 13 12 12 12 12 12 12 12 11 11 11 11 11 11 10 10 9 9 8 8 8 8 9 9 9 9 8 8 8 8 8 7 8 8 8 8 9 8 8 8 8
13 13 13 12 12 12 12 12 11 11 11 11 11 11 11 10 10 9 9 8 8 8 8 8 9 8 8 8 7 8 8 7 7 7 8 8 8 8 8 7 7 8
13 13 13 13 12 12 12 11 11 11 11 11 11 11 11 10 10 9 9 8 8 8 8 8 8 8 7 7 7 7 7 7 7 7 7 7 7 7 7 6 6 7
13 13 13 12 12 12 11 11 11 11 11 11 11 10 10 10 9 9 9 8 8 8 8 8 8 8 7 7 6 6 6 6 6 7 6 6 6 6 6 5 5 6
13 13 13 12 12 12 11 11 11 11 11 11 11 11 10 10 9 8 8 8 8 8 8 8 8 8 7 6 6 6 6 6 6 6 6 6 5 5 5 5 5 5
13 13 13 12 12 12 11 11 11 11 11 11 11 11 11 10 9 8 8 8 7 7 8 8 8 8 7 6 6 6 6 6 6 5 5 5 5 5 5 5 5 5
13 13 13 12 12 11 11 11 11 11 11 11 11 11 10 9 9 9 8 7 7 7 8 8 8 8 7 6 6 6 6 6 5 5 5 5 5 5 5 6 6 6
13 12 12 12 12 11 11 11 11 11 11 11 11 10 9 9 9 8 8 7 7 7 7 7 7 7 7 6 6 6 6 6 6 6 6 6 6 6 6 6 6 6
Height
1519 1520 1523 1525 1527 1529 1530 1532 1533 1534 1535 1537 1538 1539 1541 1542 1542 1542 1543 1544 1544 1544 1545 1545 1546 1546 1547 1547 1548 1549 1550 1551 1552 1553 1553 1554 1554 1554 1555 1555 1555 1556
1517 1518 1521 1523 1525 1527 1528 1530 1532 1533 1534 1535 1536 1537 1539 1540 1540 1540 1541 1542 1542 1542 1543 1544 1544 1545 1546 1547 1547 1549 1550 1550 1551 1552 1552 1553 1553 1553 1554 1554 1555 1555
1514 1516 1518 1521 1523 1525 1526 1528 1530 1531 1533 1534 1535 1536 1537 1538 1538 1538 1539 1539 1540 1541 1541 1542 1543 1544 1545 1546 1546 1548 1549 1549 1550 1551 1551 1552 1552 1553 1553 1553 1554 1554
1512 1514 1517 1519 1521 1523 1525 1526 1528 1529 1531 1532 1533 1534 1535 1535 1536 1537 1537 1538 1538 1539 1539 1540 1541 1542 1543 1544 1546 1547 1548 1548 1549 1550 1551 1551 1551 1552 1552 1553 1553 1553
1510 1513 1515 1517 1520 1521 1523 1524 1526 1527 1529 1530 1531 1532 1533 1534 1534 1535 1536 1536 1537 1537 1538 1539 1540 1541 1542 1543 1545 1546 1546 1547 1548 1549 1550 1551 1551 1551 1552 1552 1552 1552
1509 1511 1513 1516 1518 1520 1521 1523 1524 1526 1527 1528 1529 1530 1531 1532 1533 1533 1534 1534 1535 1536 1536 1538 1539 1540 1541 1542 1544 1544 1545 1546 1547 1548 1549 1550 1550 1551 1551 1551 1551 1552
1507 1509 1511 1514 1516 1518 1520 1521 1523 1524 1526 1527 1528 1529 1530 1531 1532 1532 1532 1533 1533 1534 1535 1537 1538 1539 1540 1541 1542 1543 1544 1545 1546 1547 1548 1549 1549 1550 1550 1551 1551 1552
1505 1507 1509 1512 1514 1516 1518 1520 1521 1522 1524 1525 1526 1527 1528 1529 1530 1530 1531 1531 1532 1533 1534 1535 1537 1538 1539 1540 1541 1542 1543 1544 1545 1546 1547 1548 1548 1549 1550 1551 1551 1551
1504 1505 1507 1509 1512 1514 1516 1518 1519 1521 1523 1524 1525 1526 1527 1528 1528 1529 1529 1530 1531 1532 1533 1534 1536 1537 1538 1539 1540 1541 1542 1543 1544 1545 1546 1547 1548 1549 1549 1550 1551 1551
1502 1503 1505 1507 1509 1512 1513 1515 1518 1520 1522 1523 1523 1525 1526 1526 1527 1527 1528 1529 1530 1531 1532 1534 1535 1536 1537 1538 1539 1540 1541 1542 1543 1544 1545 1546 1547 1548 1549 1550 1551 1551
1499 1501 1503 1504 1507 1509 1511 1513 1516 1519 1520 1521 1522 1524 1525 1525 1525 1526 1527 1527 1528 1530 1531 1532 1534 1535 1536 1537 1539 1539 1540 1541 1543 1544 1544 1545 1546 1547 1548 1549 1550 1550
1497 1499 1500 1502 1504 1506 1509 1512 1514 1517 1519 1520 1521 1522 1523 1523 1524 1525 1525 1526 1527 1529 1530 1531 1533 1534 1535 1536 1538 1538 1539 1541 1542 1543 1544 1545 1546 1547 1548 1549 1549 1550
1494 1496 1498 1500 1502 1504 1507 1510 1513 1515 1517 1519 1520 1520 1521 1522 1523 1524 1524 1525 1526 1528 1529 1530 1532 1533 1534 1536 1537 1538 1539 1541 1542 1542 1543 1544 1545 1546 1547 1548 1549 1549
1492 1495 1497 1499 1501 1503 1506 1509 1511 1513 1515 1517 1519 1519 1520 1521 1522 1523 1523 1524 1525 1527 1528 1529 1531 1532 1534 1535 1536 1537 1539 1541 1541 1542 1542 1543 1544 1545 1546 1547 1548 1549
1490 1493 1495 1498 1500 1502 1505 1507 1509 1512 1514 1516 1517 1518 1519 1520 1521 1522 1522 1523 1524 1526 1527 1528 1530 1532 1533 1534 1535 1537 1538 1539 1540 1541 1542 1543 1543 1544 1545 1546 1547 1548
1488 1490 1493 1496 1498 1500 1503 1505 1507 1510 1512 1514 1515 1516 1517 1518 1519 1520 1521 1522 1523 1524 1526 1527 1529 1531 1532 1533 1535 1536 1537 1538 1539 1540 1541 1542 1543 1544 1544 1545 1546 1547
1485 1488 1491 1494 1497 1499 1502 1504 1506 1508 1510 1512 1513 1515 1516 1517 1518 1519 1520 1521 1522 1523 1524 1525 1527 1529 1531 1532 1533 1534 1536 1537 1538 1539 1540 1541 1542 1543 1543 1544 1545 1546
1483 1486 1490 1492 1495 1497 1500 1502 1504 1506 1508 1510 1511 1513 1514 1515 1516 1517 1518 1519 1521 1522 1523 1524 1526 1529 1530 1531 1532 1533 1535 1536 1537 1538 1539 1540 1541 1542 1542 1543 1544 1545
1481 1485 1488 1490 1493 1495 1498 1499 1501 1503 1505 1507 1509 1511 1513 1514 1515 1516 1517 1518 1519 1521 1522 1524 1526 1528 1530 1530 1531 1532 1534 1535 1536 1537 1538 1539 1540 1541 1542 1542 1543 1544
1479 1483 1486 1489 1491 1493 1495 1497 1499 1501 1503 1505 1507 1509 1511 1512 1513 1514 1515 1517 1518 1520 1521 1523 1525 1527 1528 1529 1530 1532 1533 1534 1535 1536 1537 1538 1539 1540 1541 1541 1542 1543
1477 1481 1484 1486 1489 1491 1493 1495 1497 1499 1500 1502 1505 1507 1509 1510 1511 1512 1514 1516 1517 1519 1521 1522 1524 1526 1526 1527 1529 1530 1532 1533 1534 1535 1536 1537 1538 1539 1540 1540 1541 1542
1475 1478 1481 1484 1487 1489 1491 1493 1494 1496 1498 1500 1503 1505 1507 1508 1510 1511 1513 1514 1516 1517 1519 1521 1523 1524 1525 1526 1528 1529 1531 1532 1533 1534 1535 1536 1537 1538 1538 1539 1540 1541
1472 1476 1479 1482 1484 1486 1488 1490 1492 1493 1495 1499 1502 1503 1504 1506 1508 1510 1512 1513 1514 1516 1517 1519 1521 1523 1524 1525 1527 1528 1529 1531 1532 1533 1534 1535 1536 1537 1537 1538 1539 1540
1470 1473 1476 1478 1481 1483 1486 1487 1489 1491 1494 1497 1500 1501 1502 1504 1506 1508 1510 1511 1512 1514 1515 1517 1519 1521 1522 1524 1525 1527 1528 1529 1531 1532 1533 1534 1534 1535 1536 1537 1538 1539
1468 1471 1473 1475 1478 1481 1483 1485 1486 1489 1493 1496 1497 1498 1500 1502 1504 1506 1508 1509 1510 1512 1513 1515 1517 1519 1520 1521 1523 1525 1526 1528 1529 1530 1531 1532 1533 1534 1535 1536 1537 1537
1466 1468 1470 1472 1475 1478 1480 1483 1485 1487 1490 1493 1494 1496 1498 1500 1502 1504 1505 1507 1509 1510 1511 1513 1515 1516 1517 1519 1521 1523 1524 1525 1526 1527 1528 1530 1531 1532 1533 1534 1535 1535
Wind_Speed
33 33 30 29 27 24 21 19 21 24 24 23 21 20 18 18 19 19 18 17 16 15 14 14 13 12 11 11 11 11 11 12 12 12 12 11 10 10 10 9 9 8
34 33 31 29 27 24 23 21 21 24 24 22 21 20 18 16 17 18 18 16 13 12 12 13 13 12 11 10 11 11 12 12 13 13 12 11 11 10 10 9 8 7
35 34 32 30 28 26 24 22 21 23 23 22 22 20 17 15 14 15 15 14 11 10 11 13 13 12 11 11 12 12 13 13 13 13 12 12 11 11 10 8 7 6
36 34 33 30 28 26 24 23 22 23 23 23 22 19 16 15 13 13 13 13 11 10 12 13 13 12 12 12 13 13 14 13 13 13 12 12 11 10 8 8 7 7
36 34 32 30 28 26 24 23 23 24 25 24 21 18 15 14 13 13 14 14 12 12 13 13 13 13 13 13 13 14 14 14 13 13 11 11 10 9 9 9 8 8
35 34 32 30 28 27 25 23 24 25 25 22 20 18 15 14 14 14 14 13 12 13 13 13 13 13 13 14 14 15 14 14 13 12 11 10 10 10 10 10 9 9
36 35 33 30 29 27 25 24 24 24 24 21 19 17 15 14 13 13 14 13 13 14 14 14 13 13 14 14 15 15 15 14 13 12 11 11 12 12 11 10 9 8
37 36 33 31 30 28 26 25 24 24 23 20 18 16 14 12 11 13 13 13 15 15 14 14 14 13 15 15 15 15 15 15 14 13 13 13 13 12 11 10 9 8
38 37 35 33 31 29 27 26 25 24 23 20 17 15 13 11 11 13 14 14 15 15 15 14 14 14 16 16 16 16 16 15 14 14 14 13 13 12 11 10 9 9
39 37 36 35 32 30 29 27 25 24 22 20 18 16 14 12 11 13 14 15 16 16 15 15 15 16 17 16 16 16 17 16 15 14 14 13 12 12 11 9 9 9
39 39 38 36 34 32 31 29 26 23 22 22 20 18 15 12 12 14 14 15 16 16 15 16 16 17 17 17 17 17 17 16 14 14 14 14 13 12 11 10 10 10
40 40 40 38 36 34 32 29 25 23 23 23 20 17 15 13 13 14 15 15 15 16 16 16 17 18 18 18 18 18 18 16 15 14 14 14 13 13 12 11 10 10
40 40 40 39 37 35 33 29 26 24 24 22 19 18 17 15 14 14 15 16 16 17 17 17 18 19 19 19 19 19 17 15 15 15 15 14 13 13 12 11 11 10
40 39 39 39 37 36 33 29 26 25 24 20 19 20 19 17 15 13 15 17 17 18 18 18 19 19 19 19 20 18 16 16 17 17 15 14 13 12 12 12 11 10
40 40 39 38 38 36 32 29 28 26 24 21 21 22 21 18 15 14 16 19 19 19 19 19 19 19 19 21 19 17 17 18 18 17 15 14 13 13 13 13 12 10
42 40 39 39 38 35 31 29 29 27 25 23 23 24 22 19 16 16 18 20 21 21 21 21 20 20 20 20 17 17 19 20 19 17 15 15 14 13 13 13 11 10
43 40 39 39 38 35 31 30 31 30 27 25 24 25 23 20 18 19 20 22 23 23 23 23 21 20 20 18 17 18 20 20 19 17 15 15 14 14 13 13 12 11
43 41 40 39 37 34 32 33 33 32 29 27 26 26 24 22 21 21 23 24 25 25 25 24 21 20 19 17 18 20 20 19 18 16 15 15 15 14 13 12 12 11
43 41 40 38 36 34 33 35 35 33 31 29 28 27 26 24 24 24 25 26 27 27 27 25 21 19 19 19 19 20 20 19 17 16 16 15 15 14 13 12 12 11
42 40 38 36 34 34 35 37 37 34 31 30 30 29 27 26 26 26 27 27 29 29 28 26 22 19 18 19 20 20 20 19 18 17 16 15 14 14 12 12 12 11
40 38 35 33 34 36 36 37 36 34 33 33 31 29 28 27 27 27 28 29 30 29 28 27 23 18 17 19 20 20 20 19 18 17 16 14 13 13 12 12 12 11
40 37 34 33 35 38 38 38 37 36 35 35 32 29 29 28 28 28 29 30 31 30 29 29 25 19 17 20 21 21 21 19 18 17 16 14 14 14 13 13 13 13
40 38 35 34 37 39 40 39 38 37 37 35 32 30 30 29 29 29 29 30 31 31 30 30 26 19 18 22 22 22 22 20 19 19 17 16 16 16 16 16 16 16
40 37 34 35 38 40 40 40 39 38 36 33 31 30 31 30 29 29 29 30 31 32 31 30 26 20 19 22 23 23 23 22 21 21 19 18 19 19 20 19 18 18
39 37 35 35 37 40 41 41 40 38 35 32 31 32 32 30 27 27 28 30 32 32 31 30 26 22 21 23 22 23 24 23 24 23 21 21 21 21 20 19 18 18
38 37 35 35 36 40 42 41 40 38 36 34 33 33 32 28 25 26 27 29 31 31 31 30 26 23 23 23 22 23 24 24 26 27 25 24 23 21 19 17 17 18
Wind_Direction
208 210 214 218 220 219 219 223 216 208 210 216 218 220 218 214 217 222 224 225 228 227 225 223 224 227 223 217 214 212 212 210 208 207 207 210 213 217 221 224 227 230
207 211 215 217 218 217 220 224 217 210 211 215 219 223 225 220 214 218 224 226 228 229 223 218 217 219 217 214 212 208 206 204 203 202 203 207 211 214 217 218 219 222
209 212 215 217 218 217 220 223 215 210 212 215 218 223 225 221 214 216 224 230 238 230 212 206 208 211 209 208 207 204 204 204 203 203 204 207 211 214 216 216 217 217
210 214 216 217 218 218 221 221 212 208 211 215 218 220 218 215 216 219 226 236 239 217 199 198 201 204 204 204 204 203 204 204 204 206 209 210 213 216 216 213 210 208
211 213 215 216 216 217 219 218 211 208 212 214 214 213 212 214 220 225 232 239 230 204 194 196 198 201 204 204 203 204 205 205 206 209 211 212 213 212 211 209 206 205
210 212 214 215 214 215 216 213 209 209 211 211 209 210 212 217 224 231 238 238 218 196 193 196 199 202 204 204 203 205 207 208 209 210 210 211 210 209 209 209 209 208
209 210 212 212 212 213 213 210 208 209 209 206 207 210 215 221 228 234 238 228 206 193 193 198 201 203 205 205 205 207 208 209 210 210 210 209 210 211 211 210 210 207
209 209 210 210 209 209 210 209 208 208 204 202 205 211 217 227 234 235 230 213 197 193 195 199 203 204 206 207 207 209 211 210 210 210 210 210 212 214 213 210 207 201
208 208 208 208 207 207 209 207 206 206 201 199 204 210 219 232 238 234 221 200 192 194 196 200 203 206 209 210 209 212 214 213 210 209 210 211 214 214 212 210 204 199
207 207 207 207 206 207 208 207 206 205 200 198 202 208 220 232 234 227 212 194 192 196 198 201 204 207 210 211 211 213 215 215 211 209 210 211 212 212 211 208 202 199
207 206 206 206 205 207 210 208 205 203 198 198 202 208 219 232 232 222 208 197 197 200 201 204 206 210 212 212 211 213 214 215 212 209 209 209 209 210 209 207 202 203
207 205 204 206 206 207 209 207 204 201 197 198 206 213 219 230 233 222 210 203 203 204 207 208 208 212 214 212 212 213 212 212 211 210 210 210 210 209 208 208 207 209
206 205 204 206 206 207 207 205 203 201 197 198 208 215 221 229 232 225 214 209 208 209 211 211 211 213 214 213 215 215 213 212 213 215 214 212 211 209 209 212 214 216
206 204 204 205 206 206 206 205 204 201 198 203 212 217 223 229 231 228 217 211 212 214 213 213 213 214 214 215 215 213 213 217 218 218 216 213 211 208 209 214 218 219
204 204 204 204 204 206 207 207 205 201 202 210 217 220 223 225 228 227 218 212 212 213 216 216 214 215 215 214 214 216 217 218 218 218 217 215 212 209 210 216 219 217
202 202 203 203 204 206 209 209 206 204 206 213 219 222 222 222 223 222 218 214 211 212 216 216 214 215 214 213 222 228 222 217 217 217 215 214 214 213 214 218 218 216
202 204 205 205 206 208 211 211 208 207 207 211 219 222 221 220 221 219 216 213 212 213 215 216 216 213 210 218 233 232 220 216 217 215 212 214 215 215 218 221 218 214
204 206 206 206 207 210 212 210 208 208 206 210 219 221 219 218 217 215 213 211 212 214 216 219 219 211 213 229 234 223 216 216 216 213 214 215 214 216 219 224 222 216
204 205 206 208 210 213 211 207 206 206 207 211 218 219 217 216 214 213 212 212 213 215 217 220 218 215 225 233 224 215 215 215 212 213 216 214 214 218 219 222 226 222
203 205 207 211 213 211 208 205 205 206 209 215 218 217 215 215 215 214 214 213 214 216 219 219 217 225 234 227 216 214 214 211 211 213 214 214 215 217 215 219 227 227
204 207 211 214 212 207 204 204 206 208 214 218 217 216 217 217 217 217 216 214 214 216 220 219 220 232 233 219 214 214 211 210 213 212 210 213 215 212 211 219 229 234
205 208 212 213 209 205 203 204 207 211 215 217 215 215 217 217 218 218 217 216 215 217 219 219 223 233 228 216 214 214 211 211 213 210 206 208 211 209 209 218 229 236
206 206 208 210 208 206 204 204 208 212 214 215 215 217 219 219 218 218 218 218 218 219 220 220 224 231 226 217 214 214 214 212 210 210 207 206 210 212 213 220 229 236
205 205 207 209 208 206 205 206 210 214 215 216 219 222 223 222 221 219 220 220 221 222 223 223 225 230 226 219 215 216 217 214 210 210 209 207 211 216 218 224 230 236
203 204 208 211 210 207 207 208 212 214 216 218 221 224 224 222 221 220 220 220 221 224 226 226 228 230 225 218 216 217 219 216 211 211 212 212 215 221 226 229 231 235
203 205 209 213 213 209 208 209 212 213 215 216 219 222 222 220 219 220 220 221 221 222 225 227 228 227 223 218 215 217 219 217 213 214 217 219 221 228 233 231 227 231